Regional Weather Roundup
Issued by NWS

Home | Current Version | Previous Version | Text Only | Print | Product List | Glossary On
Versions: 1 2 3 4 5 6 7 8 9 10 11 12 13 14 15 16 17 18 19 20 21 22 23 24 25 26 27 28 29 30 31 32 33 34 35 36 37 38 39 40 41 42 43 44 45 46 47 48 49 50
000
ASUS43 KLMK 192210
RWRKY
KENTUCKY REGIONAL WEATHER ROUNDUP
NATIONAL WEATHER SERVICE LOUISVILLE KY
600 PM EDT THU APR 19 2018

NOTE "FAIR" INDICATES FEW OR NO CLOUDS BELOW 12,000 FEET
WITH NO SIGNIFICANT WEATHER AND/OR OBSTRUCTIONS TO VISIBILITY.

KYZ001>023-026-027-061>063-070>075-192300-
WESTERN AND SOUTH CENTRAL KENTUCKY

CITY           SKY/WX    TMP DP  RH WIND       PRES   REMARKS
PADUCAH        FAIR      54  33  45 NE13G20   30.36F
HENDERSON      PTSUNNY   52  34  50 N9        30.36S
OWENSBORO      FAIR      53  33  46 N12       30.34F
HOPKINSVILLE   PTSUNNY   49  32  50 N13G18    30.34S
BOWLING GREEN  FAIR      50  31  48 N8        30.33S
GLASGOW        CLOUDY    49  33  52 N7        30.32S
$$

KYZ024-025-028>034-038-045-046-053-192300-
NORTH CENTRAL KENTUCKY

CITY           SKY/WX    TMP DP  RH WIND       PRES   REMARKS
LOUISVILLE/SDF FAIR      54  29  38 N12G21    30.31S
LOUISVILLE/LOU FAIR      53  30  41 N9G18     30.32S
FORT KNOX      FAIR      51  30  44 N12       30.32R
$$

KYZ035>037-039>044-047>052-055>060-089>105-192300-
NORTHEAST KENTUCKY

CITY           SKY/WX    TMP DP  RH WIND       PRES   REMARKS
LEXINGTON      FAIR      50  32  50 NW9       30.29S
COVINGTON      FAIR      54  27  35 NW13      30.26S
FRANKFORT      FAIR      51  28  41 NW10      30.28S
$$

KYZ054-064>069-076>088-106>120-192300-
SOUTHEAST KENTUCKY

CITY           SKY/WX    TMP DP  RH WIND       PRES   REMARKS
JACKSON        CLOUDY    45  30  55 NW7       30.26R
LONDON         CLOUDY    45  31  58 NW10      30.29R
SOMERSET       CLOUDY    45  30  57 N5        30.32R
MIDDLESBORO    CLOUDY    47  31  54 N12G18    30.28R
MONTICELLO     CLOUDY    46  31  55 N17       30.33R
$$




USA.gov is the U.S. government's official web portal to all federal, state and local government web resources and services.